Location: Peach Mountain Observatory
(42.3967°N, 83.9367°W)
Time: 19:33:23
(UTC-05:00)

S-56A Canister/Altair - Pass Details

Date: 01 February 2020
Orbit: 633 x 2499 km, 38.9° (Epoch: 23 February)

Event Time Altitude Azimuth Distance (km) Brightness Sun altitude
Rises 17:37:31 0° 228° (SW) 5,520 13.7 1.1°
Reaches altitude 10° 17:41:47 10° 222° (SW) 4,242 12.7 0.4°
Maximum altitude 17:51:34 41° 158° (SSE) 1,921 9.6 -1.2°
Drops below altitude 10° 17:58:15 10° 90° (E) 2,910 9.9 -2.4°
Enters shadow 18:00:10 - 84° (E) 3,506 10.3 -2.7°
Sets 18:00:39 0° 83° (E) 3,661 - -2.8°
